EN

Hourly Weather Altus

Today, 28 January, Thursday

Time Temperature Precipitation Wind Pressure Humidity
00:00 -2°C° 0 mm 3 mps 736 mmHg 57%
01:00 -2°C° 0 mm 3 mps 736 mmHg 57%
02:00 -2°C° 0 mm 3 mps 736 mmHg 57%
03:00 -4°C° 0 mm 3 mps 736 mmHg 58%
04:00 -4°C° 0 mm 3 mps 736 mmHg 59%
05:00 -4°C° 0 mm 3 mps 736 mmHg 61%
06:00 -2°C° 0 mm 3 mps 736 mmHg 59%
07:00 -2°C° 0 mm 3 mps 736 mmHg 57%
08:00 -2°C° 0 mm 4 mps 737 mmHg 55%
09:00 0°C° 0 mm 4 mps 736 mmHg 51%
10:00 +2°C° 0 mm 5 mps 736 mmHg 47%
11:00 +5°C° 0 mm 5 mps 736 mmHg 44%
12:00 +6°C° 0 mm 5 mps 735 mmHg 43%
13:00 +7°C° 0 mm 5 mps 734 mmHg 43%
14:00 +8°C° 0 mm 6 mps 733 mmHg 42%
15:00 +7°C° 0 mm 5 mps 732 mmHg 46%
16:00 +6°C° 0 mm 5 mps 732 mmHg 49%
17:00 +5°C° 0 mm 4 mps 732 mmHg 52%
18:00 +5°C° 0 mm 5 mps 732 mmHg 55%
19:00 +3°C° 0 mm 5 mps 732 mmHg 57%
20:00 +3°C° 0 mm 5 mps 732 mmHg 60%
21:00 +2°C° 0 mm 5 mps 731 mmHg 61%
22:00 +2°C° 0 mm 5 mps 731 mmHg 62%
23:00 +2°C° 0 mm 5 mps 731 mmHg 64%

Tomorrow, 29 January, Friday

Time Temperature Precipitation Wind Pressure Humidity
00:00 +2°C° 0 mm 5 mps 730 mmHg 66%
01:00 +2°C° 0 mm 5 mps 730 mmHg 68%
02:00 +2°C° 0 mm 5 mps 729 mmHg 70%
03:00 +2°C° 0 mm 5 mps 728 mmHg 71%
04:00 +3°C° 0 mm 4 mps 728 mmHg 72%
05:00 +3°C° 0 mm 4 mps 727 mmHg 73%
06:00 +2°C° 0 mm 5 mps 727 mmHg 70%
07:00 +3°C° 0 mm 5 mps 727 mmHg 67%
08:00 +4°C° 0 mm 6 mps 727 mmHg 64%
09:00 +7°C° 0 mm 6 mps 726 mmHg 60%
10:00 +9°C° 0 mm 7 mps 726 mmHg 55%
11:00 +10°C° 0 mm 8 mps 726 mmHg 50%
12:00 +11°C° 0 mm 8 mps 725 mmHg 51%
13:00 +12°C° 0 mm 8 mps 724 mmHg 52%
14:00 +13°C° 0 mm 8 mps 723 mmHg 53%
15:00 +14°C° 0 mm 7 mps 722 mmHg 59%
16:00 +12°C° 0 mm 7 mps 722 mmHg 64%
17:00 +12°C° 0 mm 7 mps 721 mmHg 70%
18:00 +11°C° 0 mm 7 mps 721 mmHg 73%
19:00 +11°C° 0 mm 7 mps 720 mmHg 76%
20:00 +11°C° 0 mm 7 mps 720 mmHg 79%
21:00 +11°C° 0 mm 7 mps 719 mmHg 82%
22:00 +10°C° 0 mm 7 mps 719 mmHg 85%
23:00 +10°C° 0 mm 7 mps 718 mmHg 88%

Day after tomorrow, 30 January, Saturday

Time Temperature Precipitation Wind Pressure Humidity
00:00 +10°C° 0.2 mm 7 mps 717 mmHg 88%
01:00 +10°C° 0.2 mm 7 mps 716 mmHg 88%
02:00 +11°C° 0.2 mm 7 mps 716 mmHg 88%
03:00 +11°C° 0 mm 8 mps 715 mmHg 80%
04:00 +11°C° 0 mm 9 mps 714 mmHg 72%
05:00 +12°C° 0 mm 10 mps 713 mmHg 64%
06:00 +12°C° 0 mm 10 mps 713 mmHg 55%
07:00 +12°C° 0 mm 11 mps 714 mmHg 45%
08:00 +11°C° 0 mm 11 mps 714 mmHg 36%
09:00 +13°C° 0 mm 11 mps 715 mmHg 33%
10:00 +16°C° 0 mm 11 mps 716 mmHg 30%
11:00 +18°C° 0 mm 10 mps 717 mmHg 28%
12:00 +18°C° 0 mm 10 mps 717 mmHg 27%
13:00 +18°C° 0 mm 9 mps 717 mmHg 27%
14:00 +19°C° 0 mm 9 mps 717 mmHg 27%
15:00 +18°C° 0 mm 7 mps 718 mmHg 30%
16:00 +16°C° 0 mm 5 mps 719 mmHg 32%
17:00 +16°C° 0 mm 3 mps 719 mmHg 35%
18:00 +14°C° 0 mm 4 mps 720 mmHg 37%
19:00 +13°C° 0 mm 4 mps 721 mmHg 38%
20:00 +12°C° 0 mm 4 mps 722 mmHg 40%
21:00 +11°C° 0 mm 4 mps 722 mmHg 44%
22:00 +10°C° 0 mm 4 mps 723 mmHg 48%
23:00 +8°C° 0 mm 4 mps 724 mmHg 52%

31 January, Sunday

Time Temperature Precipitation Wind Pressure Humidity
00:00 +7°C° 0 mm 4 mps 724 mmHg 55%
01:00 +8°C° 0 mm 3 mps 725 mmHg 59%
02:00 +7°C° 0 mm 3 mps 726 mmHg 62%
03:00 +5°C° 0 mm 3 mps 726 mmHg 64%
04:00 +5°C° 0 mm 3 mps 727 mmHg 66%
05:00 +4°C° 0 mm 3 mps 727 mmHg 68%
06:00 +5°C° 0 mm 4 mps 728 mmHg 66%
07:00 +5°C° 0 mm 5 mps 729 mmHg 64%
08:00 +5°C° 0 mm 5 mps 730 mmHg 63%
09:00 +7°C° 0 mm 6 mps 730 mmHg 57%
10:00 +9°C° 0 mm 6 mps 731 mmHg 52%
11:00 +11°C° 0 mm 6 mps 731 mmHg 47%
12:00 +13°C° 0 mm 5 mps 731 mmHg 44%
13:00 +13°C° 0 mm 5 mps 730 mmHg 41%
14:00 +14°C° 0 mm 5 mps 730 mmHg 38%
15:00 +13°C° 0 mm 4 mps 730 mmHg 41%
16:00 +12°C° 0 mm 3 mps 730 mmHg 44%
17:00 +12°C° 0 mm 2 mps 730 mmHg 47%
18:00 +10°C° 0 mm 2 mps 731 mmHg 50%
19:00 +9°C° 0 mm 2 mps 731 mmHg 52%
20:00 +8°C° 0 mm 1 mps 731 mmHg 55%
21:00 +8°C° 0 mm 1 mps 731 mmHg 57%
22:00 +7°C° 0 mm 1 mps 731 mmHg 59%
23:00 +7°C° 0 mm 1 mps 731 mmHg 61%

1 February, Monday

Time Temperature Precipitation Wind Pressure Humidity
00:00 +7°C° 0 mm 1 mps 731 mmHg 61%
01:00 +6°C° 0 mm 2 mps 731 mmHg 60%
02:00 +6°C° 0 mm 2 mps 731 mmHg 60%
03:00 +5°C° 0 mm 2 mps 731 mmHg 62%
04:00 +5°C° 0 mm 2 mps 731 mmHg 64%
05:00 +5°C° 0 mm 2 mps 731 mmHg 66%
06:00 +6°C° 0 mm 2 mps 731 mmHg 63%
07:00 +7°C° 0 mm 2 mps 731 mmHg 61%
08:00 +8°C° 0 mm 2 mps 731 mmHg 58%
09:00 +10°C° 0 mm 3 mps 731 mmHg 51%
10:00 +12°C° 0 mm 4 mps 731 mmHg 45%
11:00 +15°C° 0 mm 5 mps 730 mmHg 38%
12:00 +15°C° 0 mm 5 mps 729 mmHg 36%
13:00 +16°C° 0 mm 6 mps 728 mmHg 34%
14:00 +17°C° 0 mm 6 mps 728 mmHg 31%
15:00 +16°C° 0 mm 5 mps 727 mmHg 35%
16:00 +14°C° 0 mm 5 mps 727 mmHg 38%
17:00 +13°C° 0 mm 4 mps 726 mmHg 41%
18:00 +12°C° 0 mm 4 mps 726 mmHg 43%
19:00 +11°C° 0 mm 4 mps 726 mmHg 45%
20:00 +10°C° 0 mm 4 mps 726 mmHg 47%
21:00 +10°C° 0 mm 4 mps 726 mmHg 48%
22:00 +10°C° 0 mm 4 mps 726 mmHg 49%
23:00 +10°C° 0 mm 4 mps 725 mmHg 49%

2 February, Tuesday

Time Temperature Precipitation Wind Pressure Humidity
00:00 +8°C° 0 mm 5 mps 725 mmHg 50%
01:00 +8°C° 0 mm 5 mps 725 mmHg 51%
02:00 +8°C° 0 mm 5 mps 724 mmHg 51%
03:00 +8°C° 0 mm 5 mps 724 mmHg 54%
04:00 +7°C° 0 mm 5 mps 723 mmHg 56%
05:00 +7°C° 0 mm 5 mps 723 mmHg 58%
06:00 +7°C° 0 mm 5 mps 723 mmHg 58%
07:00 +8°C° 0 mm 6 mps 723 mmHg 58%
08:00 +8°C° 0 mm 6 mps 723 mmHg 58%
09:00 +10°C° 0 mm 7 mps 722 mmHg 54%
10:00 +11°C° 0 mm 8 mps 722 mmHg 49%
11:00 +13°C° 0 mm 8 mps 721 mmHg 45%
12:00 +15°C° 0 mm 8 mps 720 mmHg 45%
13:00 +16°C° 0 mm 8 mps 719 mmHg 44%
14:00 +17°C° 0 mm 8 mps 718 mmHg 43%
15:00 +17°C° 0 mm 8 mps 718 mmHg 47%
16:00 +16°C° 0 mm 8 mps 717 mmHg 51%
17:00 +16°C° 0 mm 7 mps 717 mmHg 55%
18:00 +15°C° 0 mm 8 mps 717 mmHg 58%
19:00 +15°C° 0 mm 8 mps 716 mmHg 61%
20:00 +15°C° 0 mm 9 mps 716 mmHg 64%
21:00 +15°C° 0 mm 8 mps 716 mmHg 65%
22:00 +14°C° 0 mm 7 mps 716 mmHg 65%
23:00 +14°C° 0 mm 6 mps 716 mmHg 66%
Show more